Tracking 30261 objects as of 18-Feb-2025
HD Live streaming from Space Station
objects crossing your sky now

ONEWEB-0510

Track ONEWEB-0510 now!
10-day predictions
ONEWEB-0510 is classified as:


NORAD ID: 54128
Int'l Code: 2022-138R
Perigee: 1,187.5 km
Apogee: 1,190.4 km
Inclination: 87.9 °
Period: 109.0 minutes
Semi major axis: 7559 km
RCS: Unknown
Launch date: October 22, 2022
Source: United Kingdom (UK)
Launch site: SRIHARIKOTA (SRI)
Your satellite tracking list
Your tracking list is empty




NASA's NSSDC Master Catalog

Two Line Element Set (TLE):
1 54128U 22138R   25048.89408948  .00000067  00000-0  13286-3 0  9991
2 54128  87.9299  10.7957 0001931  75.0568 285.0779 13.20771923115358
Source of the keplerian elements: AFSPC